GW7654 Weather Reports


time (UTC)temp
C
wind
direction
speed
KPH
gust
KPH
rain 1hr
cm
rain 24hr
cm
rain mn
cm
humidity
%
barometer
mb
20260902223928 27 78 9.7 9.7 0.00 0.00 0.00 27 1012.5
20260902223430 27 64 6.4 9.7 0.00 0.00 0.00 26 1012.5
20260902222931 27 100 8.0 9.7 0.00 0.00 0.00 26 1012.9
20260902222428 27 93 11.3 16.1 0.00 0.00 0.00 27 1012.9
20260902221928 27 83 9.7 12.9 0.00 0.00 0.00 27 1012.9
20260902221429 27 87 3.2 3.2 0.00 0.00 0.00 27 1012.5
20260902220928 27 75 4.8 4.8 0.00 0.00 0.00 27 1012.9
20260902220429 27 75 0.0 0.0 0.00 0.00 0.00 27 1012.9
20260902215928 27 63 9.7 12.9 0.00 0.00 0.00 26 1012.9
20260902215429 27 90 8.0 11.3 0.00 0.00 0.00 26 1012.9
20260902214928 27 41 9.7 14.5 0.00 0.00 0.00 25 1012.9
20260902214428 27 41 9.7 14.5 0.00 0.00 0.00 25 1012.9
20260902213928 27 41 9.7 14.5 0.00 0.00 0.00 25 1012.9
20260902213430 27 64 11.3 14.5 0.00 0.00 0.00 25 1012.9
20260902212929 27 57 8.0 9.7 0.00 0.00 0.00 25 1013.2
20260902212430 27 87 9.7 11.3 0.00 0.00 0.00 25 1012.9
20260902211929 27 78 6.4 11.3 0.00 0.00 0.00 25 1013.2
20260902211429 27 55 12.9 14.5 0.00 0.00 0.00 25 1013.2
20260902210929 27 87 4.8 4.8 0.00 0.00 0.00 24 1013.2
20260902210428 27 89 8.0 11.3 0.00 0.00 0.00 24 1013.2
20260902205929 27 104 4.8 4.8 0.00 0.00 0.00 25 1013.5
20260902205428 28 74 8.0 11.3 0.00 0.00 0.00 24 1013.2
20260902204929 28 3 16.1 20.9 0.00 0.00 0.00 24 1012.9
20260902204430 28 32 1.6 3.2 0.00 0.00 0.00 25 1013.2
20260902203930 28 84 3.2 3.2 0.00 0.00 0.00 25 1013.2
20260902203429 28 312 9.7 14.5 0.00 0.00 0.00 25 1012.9
20260902202929 28 15 6.4 8.0 0.00 0.00 0.00 25 1012.9
20260902202428 28 44 8.0 9.7 0.00 0.00 0.00 25 1012.9
20260902201929 28 24 8.0 9.7 0.00 0.00 0.00 25 1013.2
20260902201429 28 4 9.7 11.3 0.00 0.00 0.00 25 1013.2
20260902200929 28 346 8.0 11.3 0.00 0.00 0.00 25 1012.9
20260902200428 29 294 4.8 8.0 0.00 0.00 0.00 24 1013.2
20260902195929 29 18 6.4 8.0 0.00 0.00 0.00 24 1013.2
20260902195428 29 80 6.4 9.7 0.00 0.00 0.00 24 1012.9
20260902194928 29 356 8.0 11.3 0.00 0.00 0.00 24 1013.2
20260902194428 29 42 6.4 9.7 0.00 0.00 0.00 24 1013.2
20260902193929 29 11 6.4 9.7 0.00 0.00 0.00 24 1013.2
20260902193429 29 46 8.0 11.3 0.00 0.00 0.00 24 1013.2
20260902192929 29 8 8.0 9.7 0.00 0.00 0.00 24 1013.2
20260902192428 29 2 9.7 12.9 0.00 0.00 0.00 24 1013.2
20260902191934 29 17 4.8 9.7 0.00 0.00 0.00 24 1013.2
20260902191429 29 314 4.8 8.0 0.00 0.00 0.00 24 1012.9
20260902190929 29 340 8.0 11.3 0.00 0.00 0.00 24 1013.2
20260902190428 29 74 4.8 4.8 0.00 0.00 0.00 24 1013.2
20260902185929 29 40 3.2 4.8 0.00 0.00 0.00 24 1013.2
20260902185429 29 77 3.2 3.2 0.00 0.00 0.00 24 1013.2
20260902184928 29 39 4.8 9.7 0.00 0.00 0.00 23 1013.2
20260902184431 29 12 9.7 11.3 0.00 0.00 0.00 23 1013.2
20260902183928 29 325 6.4 9.7 0.00 0.00 0.00 24 1013.2
20260902183428 30 24 9.7 11.3 0.00 0.00 0.00 24 1013.2
20260902182928 30 40 12.9 16.1 0.00 0.00 0.00 23 1012.9
20260902182428 30 77 11.3 12.9 0.00 0.00 0.00 23 1012.9
20260902181929 30 307 14.5 16.1 0.00 0.00 0.00 23 1012.9
20260902181429 30 346 3.2 3.2 0.00 0.00 0.00 23 1012.9
20260902180929 30 336 4.8 8.0 0.00 0.00 0.00 23 1012.9
20260902180430 30 324 9.7 12.9 0.00 0.00 0.00 23 1012.9
20260902175932 30 10 8.0 14.5 0.00 0.00 0.00 23 1012.9
20260902175429 30 32 8.0 11.3 0.00 0.00 0.00 23 1012.5
20260902174928 30 323 11.3 12.9 0.00 0.00 0.00 22 1012.9
20260902174429 30 351 11.3 16.1 0.00 0.00 0.00 22 1012.9
20260902173929 30 359 6.4 9.7 0.00 0.00 0.00 23 1012.5
20260902173428 30 354 8.0 12.9 0.00 0.00 0.00 22 1012.5
20260902172928 30 82 1.6 1.6 0.00 0.00 0.00 22 1012.5
20260902172429 30 82 4.8 8.0 0.00 0.00 0.00 22 1012.5
20260902171930 30 128 1.6 1.6 0.00 0.00 0.00 22 1012.2
20260902171430 30 347 3.2 3.2 0.00 0.00 0.00 22 1012.2
20260902170930 30 349 4.8 4.8 0.00 0.00 0.00 22 1012.5
20260902170428 30 10 4.8 4.8 0.00 0.00 0.00 22 1012.2
20260902165929 30 29 4.8 4.8 0.00 0.00 0.00 22 1012.2
20260902165430 30 49 1.6 3.2 0.00 0.00 0.00 22 1012.2
20260902164932 30 32 4.8 4.8 0.00 0.00 0.00 22 1011.9
20260902164429 30 352 4.8 4.8 0.00 0.00 0.00 22 1012.2
20260902163929 31 22 3.2 4.8 0.00 0.00 0.00 22 1011.9
20260902163428 31 34 3.2 3.2 0.00 0.00 0.00 22 1011.9
20260902162928 31 21 3.2 3.2 0.00 0.00 0.00 22 1011.9
20260902162429 31 7 6.4 8.0 0.00 0.00 0.00 22 1011.9
20260902161929 31 29 3.2 4.8 0.00 0.00 0.00 22 1011.9
20260902161428 31 26 3.2 3.2 0.00 0.00 0.00 21 1011.9
20260902160929 31 40 0.0 1.6 0.00 0.00 0.00 21 1011.9
20260902160429 31 339 1.6 1.6 0.00 0.00 0.00 22 1011.9
20260902155929 31 315 1.6 1.6 0.00 0.00 0.00 22 1011.9
20260902155429 31 326 1.6 1.6 0.00 0.00 0.00 21 1011.5
20260902154929 32 316 1.6 3.2 0.00 0.00 0.00 21 1011.9
20260902154429 32 18 1.6 1.6 0.00 0.00 0.00 21 1011.9
20260902153932 32 19 1.6 1.6 0.00 0.00 0.00 21 1011.9
20260902153429 33 20 0.0 0.0 0.00 0.00 0.00 20 1011.9
20260902152928 33 22 0.0 0.0 0.00 0.00 0.00 20 1012.2
20260902152429 34 40 3.2 3.2 0.00 0.00 0.00 18 1011.9
20260902151929 35 95 0.0 0.0 0.00 0.00 0.00 19 1011.9
20260902151429 35 95 1.6 1.6 0.00 0.00 0.00 17 1011.9
20260902150929 35 217 0.0 0.0 0.00 0.00 0.00 17 1012.2
20260902150429 35 218 0.0 0.0 0.00 0.00 0.00 18 1012.2
20260902145929 34 192 0.0 0.0 0.00 0.00 0.00 18 1012.2
20260902145429 34 134 0.0 0.0 0.00 0.00 0.00 18 1011.9
20260902144929 35 129 1.6 3.2 0.00 0.00 0.00 18 1012.2
20260902144428 35 199 1.6 1.6 0.00 0.00 0.00 18 1012.2
20260902143928 35 86 1.6 1.6 0.00 0.00 0.00 18 1012.2
20260902143429 35 175 1.6 0.0 0.00 0.00 0.00 19 1012.2
20260902142929 35 115 3.2 1.6 0.00 0.00 0.00 18 1012.5
20260902142428 35 186 0.0 0.0 0.00 0.00 0.00 18 1012.2
20260902141931 35 201 3.2 3.2 0.00 0.00 0.00 17 1012.2
20260902141429 36 132 4.8 4.8 0.00 0.00 0.00 17 1012.2
20260902140929 36 190 0.0 0.0 0.00 0.00 0.00 17 1012.2
20260902140429 36 214 1.6 1.6 0.00 0.00 0.00 18 1012.5
20260902135928 35 208 0.0 0.0 0.00 0.00 0.00 17 1012.5
20260902135429 35 250 1.6 1.6 0.00 0.00 0.00 17 1012.5
20260902134930 35 230 1.6 1.6 0.00 0.00 0.00 17 1012.2
20260902134428 35 293 4.8 4.8 0.00 0.00 0.00 17 1012.2
20260902133928 35 336 4.8 4.8 0.00 0.00 0.00 18 1012.5
20260902133428 35 180 1.6 3.2 0.00 0.00 0.00 17 1012.9
20260902132928 35 271 3.2 3.2 0.00 0.00 0.00 17 1012.2
20260902132430 35 200 8.0 9.7 0.00 0.00 0.00 18 1012.5
20260902131928 35 184 4.8 3.2 0.00 0.00 0.00 18 1012.5
20260902131428 35 171 3.2 3.2 0.00 0.00 0.00 18 1012.5
20260902130929 35 256 1.6 1.6 0.00 0.00 0.00 18 1012.5
20260902130429 35 292 4.8 3.2 0.00 0.00 0.00 17 1012.5
20260902125928 34 220 3.2 4.8 0.00 0.00 0.00 18 1012.5
20260902125430 35 197 4.8 4.8 0.00 0.00 0.00 17 1012.9
20260902124929 34 168 6.4 9.7 0.00 0.00 0.00 18 1012.5
20260902124428 34 190 9.7 12.9 0.00 0.00 0.00 17 1012.9
20260902123929 34 254 6.4 9.7 0.00 0.00 0.00 18 1012.9
20260902123429 35 197 4.8 8.0 0.00 0.00 0.00 17 1012.5
20260902122929 35 309 9.7 9.7 0.00 0.00 0.00 17 1012.5
20260902122429 35 189 4.8 4.8 0.00 0.00 0.00 17 1012.9
20260902121929 35 228 4.8 4.8 0.00 0.00 0.00 19 1012.9
20260902121429 34 263 1.6 1.6 0.00 0.00 0.00 19 1012.9
20260902120928 35 173 4.8 4.8 0.00 0.00 0.00 18 1012.9
20260902120428 34 206 4.8 4.8 0.00 0.00 0.00 19 1012.9
20260902115930 35 209 9.7 11.3 0.00 0.00 0.00 19 1012.9
20260902115428 35 191 4.8 8.0 0.00 0.00 0.00 19 1013.2
20260902114928 35 185 4.8 3.2 0.00 0.00 0.00 18 1013.2
20260902114429 35 180 6.4 8.0 0.00 0.00 0.00 19 1013.2
20260902113929 36 254 1.6 3.2 0.00 0.00 0.00 18 1013.2
20260902113429 35 98 1.6 1.6 0.00 0.00 0.00 18 1013.2
20260902112928 35 143 4.8 4.8 0.00 0.00 0.00 18 1013.2
20260902112429 35 269 1.6 1.6 0.00 0.00 0.00 18 1013.5
20260902111929 35 91 1.6 1.6 0.00 0.00 0.00 18 1013.2
20260902111428 35 152 4.8 4.8 0.00 0.00 0.00 18 1013.5
20260902110929 34 273 3.2 3.2 0.00 0.00 0.00 19 1013.5
20260902110429 33 112 3.2 3.2 0.00 0.00 0.00 20 1013.5
20260902105928 34 91 11.3 12.9 0.00 0.00 0.00 20 1013.5
20260902105429 34 189 3.2 3.2 0.00 0.00 0.00 19 1013.5
20260902104931 34 85 1.6 0.0 0.00 0.00 0.00 20 1013.5
20260902104428 33 161 3.2 4.8 0.00 0.00 0.00 20 1013.9
20260902103928 33 331 3.2 3.2 0.00 0.00 0.00 19 1013.5
20260902103429 33 170 3.2 3.2 0.00 0.00 0.00 19 1013.5
20260902102928 33 98 1.6 3.2 0.00 0.00 0.00 20 1013.9
20260902102429 33 191 3.2 3.2 0.00 0.00 0.00 21 1013.9
20260902101928 33 199 8.0 9.7 0.00 0.00 0.00 21 1013.9
20260902101432 33 226 4.8 8.0 0.00 0.00 0.00 21 1013.9
20260902100929 33 161 4.8 8.0 0.00 0.00 0.00 22 1013.9
20260902100429 33 236 0.0 1.6 0.00 0.00 0.00 21 1013.9
20260902095928 33 194 4.8 4.8 0.00 0.00 0.00 21 1014.2
20260902095429 33 213 4.8 8.0 0.00 0.00 0.00 21 1013.9
20260902094928 33 109 6.4 8.0 0.00 0.00 0.00 21 1013.9
20260902094433 33 182 4.8 4.8 0.00 0.00 0.00 21 1014.2
20260902093928 32 167 3.2 3.2 0.00 0.00 0.00 21 1014.2
20260902093429 32 140 3.2 3.2 0.00 0.00 0.00 21 1014.2
20260902092929 32 270 3.2 4.8 0.00 0.00 0.00 22 1013.9
20260902092428 32 243 0.0 1.6 0.00 0.00 0.00 21 1013.9
20260902091929 32 156 3.2 4.8 0.00 0.00 0.00 21 1014.2
20260902091428 32 229 3.2 3.2 0.00 0.00 0.00 21 1014.2
20260902090441 32 201 6.4 9.7 0.00 0.00 0.00 24 1014.2
20260902085928 32 152 3.2 3.2 0.00 0.00 0.00 23 1014.2
20260902085428 32 207 4.8 3.2 0.00 0.00 0.00 23 1014.2
20260902084929 32 203 8.0 9.7 0.00 0.00 0.00 22 1014.2
20260902084429 32 91 4.8 8.0 0.00 0.00 0.00 24 1014.2
20260902083928 32 125 1.6 1.6 0.00 0.00 0.00 26 1014.2
20260902083428 32 202 1.6 3.2 0.00 0.00 0.00 24 1014.6
20260902082928 32 226 3.2 3.2 0.00 0.00 0.00 23 1014.2
20260902082428 32 129 4.8 4.8 0.00 0.00 0.00 24 1014.2
20260902081928 32 150 1.6 1.6 0.00 0.00 0.00 24 1014.6
20260902081428 31 92 3.2 4.8 0.00 0.00 0.00 25 1014.6
20260902080928 32 125 4.8 8.0 0.00 0.00 0.00 24 1014.9
20260902080429 31 194 3.2 3.2 0.00 0.00 0.00 24 1014.9
20260902075928 31 161 6.4 9.7 0.00 0.00 0.00 25 1014.6
20260902075428 31 180 3.2 3.2 0.00 0.00 0.00 26 1014.6
20260902074928 31 179 6.4 8.0 0.00 0.00 0.00 27 1014.6
20260902074429 31 74 4.8 4.8 0.00 0.00 0.00 29 1014.6
20260902073930 31 148 4.8 8.0 0.00 0.00 0.00 29 1014.6
20260902073428 31 136 1.6 1.6 0.00 0.00 0.00 29 1014.6
20260902072929 31 242 1.6 1.6 0.00 0.00 0.00 30 1014.6
20260902072428 31 214 3.2 4.8 0.00 0.00 0.00 29 1014.6
20260902071928 31 187 4.8 4.8 0.00 0.00 0.00 31 1014.2
20260902071429 31 76 3.2 3.2 0.00 0.00 0.00 30 1014.6
20260902070928 31 157 4.8 9.7 0.00 0.00 0.00 30 1014.6
20260902070428 31 183 3.2 4.8 0.00 0.00 0.00 30 1014.2
20260902065929 31 200 3.2 3.2 0.00 0.00 0.00 31 1014.2
20260902065428 31 216 3.2 3.2 0.00 0.00 0.00 30 1014.2
20260902064931 31 156 0.0 0.0 0.00 0.00 0.00 30 1014.2
20260902064432 31 127 1.6 1.6 0.00 0.00 0.00 31 1014.2
20260902063929 30 123 1.6 1.6 0.00 0.00 0.00 32 1014.2
20260902063429 30 113 1.6 1.6 0.00 0.00 0.00 32 1014.2
20260902062928 30 196 4.8 4.8 0.00 0.00 0.00 31 1014.2
20260902062428 30 140 3.2 4.8 0.00 0.00 0.00 32 1014.6
20260902061929 30 89 4.8 8.0 0.00 0.00 0.00 33 1014.6
20260902061429 30 228 3.2 8.0 0.00 0.00 0.00 30 1014.6
20260902060929 30 81 9.7 11.3 0.00 0.00 0.00 30 1014.2
20260902060430 30 212 1.6 1.6 0.00 0.00 0.00 29 1014.6
20260902055928 29 81 4.8 4.8 0.00 0.00 0.00 30 1014.2
20260902055429 29 71 4.8 4.8 0.00 0.00 0.00 30 1014.2
20260902054930 30 79 8.0 9.7 0.00 0.00 0.00 29 1014.2
20260902054429 29 189 0.0 0.0 0.00 0.00 0.00 31 1014.2
20260902053930 29 149 1.6 1.6 0.00 0.00 0.00 31 1014.2
20260902053429 28 66 1.6 1.6 0.00 0.00 0.00 31 1014.2
20260902052929 28 75 3.2 4.8 0.00 0.00 0.00 31 1014.2
20260902052428 27 96 6.4 8.0 0.00 0.00 0.00 32 1014.2
20260902051930 27 80 6.4 8.0 0.00 0.00 0.00 33 1014.2
20260902051429 27 37 0.0 0.0 0.00 0.00 0.00 31 1014.6
20260902050928 28 105 12.9 14.5 0.00 0.00 0.00 28 1014.2
20260902050428 28 64 4.8 4.8 0.00 0.00 0.00 28 1014.2
20260902045929 28 90 1.6 1.6 0.00 0.00 0.00 28 1014.2
20260902045428 27 88 0.0 0.0 0.00 0.00 0.00 28 1014.2
20260902044929 27 76 4.8 8.0 0.00 0.00 0.00 29 1014.2
20260902044430 27 77 3.2 3.2 0.00 0.00 0.00 29 1014.2
20260902043928 26 66 8.0 9.7 0.00 0.00 0.00 30 1014.2
20260902043428 27 82 9.7 11.3 0.00 0.00 0.00 30 1014.2
20260902042929 26 90 1.6 1.6 0.00 0.00 0.00 30 1014.2
20260902042429 26 65 4.8 4.8 0.00 0.00 0.00 31 1013.9
20260902041928 26 89 1.6 1.6 0.00 0.00 0.00 31 1014.2
20260902041430 26 129 1.6 1.6 0.00 0.00 0.00 32 1014.2
20260902040929 25 71 4.8 4.8 0.00 0.00 0.00 33 1014.2
20260902040429 25 78 8.0 9.7 0.00 0.00 0.00 33 1013.9
20260902035930 25 103 4.8 9.7 0.00 0.00 0.00 34 1013.9
20260902035433 25 99 8.0 11.3 0.00 0.00 0.00 34 1013.9
20260902034929 24 108 0.0 0.0 0.00 0.00 0.00 35 1013.9
20260902034428 24 100 1.6 1.6 0.00 0.00 0.00 36 1014.2
20260902033928 24 165 0.0 1.6 0.00 0.00 0.00 36 1013.9
20260902033428 23 91 1.6 1.6 0.00 0.00 0.00 37 1013.9
20260902032930 23 156 1.6 0.0 0.00 0.00 0.00 38 1013.9
20260902032434 23 107 3.2 3.2 0.00 0.00 0.00 40 1013.5
20260902031928 23 190 0.0 0.0 0.00 0.00 0.00 40 1013.5
20260902031428 23 164 0.0 0.0 0.00 0.00 0.00 40 1013.5
20260902030930 23 133 0.0 0.0 0.00 0.00 0.00 40 1013.5
20260902030428 23 135 0.0 0.0 0.00 0.00 0.00 41 1013.9
20260902025928 23 150 0.0 0.0 0.00 0.00 0.00 41 1013.5
20260902025429 23 116 0.0 0.0 0.00 0.00 0.00 41 1013.9
20260902024928 23 148 0.0 0.0 0.00 0.00 0.00 41 1013.9
20260902024430 23 205 4.8 8.0 0.00 0.00 0.00 41 1013.5
20260902023929 23 175 1.6 1.6 0.00 0.00 0.00 41 1013.5
20260902023430 23 175 1.6 1.6 0.00 0.00 0.00 40 1013.5
20260902022929 23 162 0.0 0.0 0.00 0.00 0.00 40 1013.5
20260902022428 23 96 0.0 0.0 0.00 0.00 0.00 40 1013.5
20260902021929 23 87 0.0 0.0 0.00 0.00 0.00 40 1013.5
20260902021428 23 132 0.0 0.0 0.00 0.00 0.00 41 1013.5
20260902020928 23 79 0.0 0.0 0.00 0.00 0.00 42 1013.5
20260902020428 23 129 0.0 0.0 0.00 0.00 0.00 42 1013.5
20260902015929 23 86 0.0 0.0 0.00 0.00 0.00 41 1013.5
20260902015429 23 85 0.0 0.0 0.00 0.00 0.00 41 1013.5
20260902014928 23 87 0.0 1.6 0.00 0.00 0.00 42 1013.5
20260902014429 23 1 1.6 1.6 0.00 0.00 0.00 43 1013.5
20260902013929 23 271 0.0 0.0 0.00 0.00 0.00 43 1013.5
20260902013428 23 266 0.0 0.0 0.00 0.00 0.00 45 1013.5
20260902012928 23 266 0.0 0.0 0.00 0.00 0.00 45 1013.5
20260902012430 23 292 0.0 0.0 0.00 0.00 0.00 45 1013.5
20260902011929 23 292 0.0 0.0 0.00 0.00 0.00 44 1013.5
20260902011428 23 286 0.0 0.0 0.00 0.00 0.00 45 1013.5
20260902010928 23 286 0.0 0.0 0.00 0.00 0.00 45 1013.9
20260902010428 23 285 1.6 1.6 0.00 0.00 0.00 45 1013.5
20260902005928 23 287 0.0 0.0 0.00 0.00 0.00 45 1013.5
20260902005429 23 282 1.6 1.6 0.00 0.00 0.00 45 1013.5
20260902004928 23 285 4.8 4.8 0.00 0.00 0.00 45 1013.5
20260902004428 23 270 3.2 1.6 0.00 0.00 0.00 45 1013.9
20260902003929 23 259 0.0 0.0 0.00 0.00 0.00 45 1013.2
20260902003430 23 288 1.6 1.6 0.00 0.00 0.00 45 1013.5
20260902002928 23 281 3.2 3.2 0.00 0.00 0.00 45 1013.5
20260902002428 23 237 1.6 1.6 0.00 0.00 0.00 45 1013.5
20260902001929 23 268 1.6 3.2 0.00 0.00 0.00 44 1013.5
20260902001429 23 248 1.6 1.6 0.00 0.00 0.00 44 1013.5
20260902000932 23 249 0.0 0.0 0.00 0.00 0.00 44 1013.5
20260902000430 23 289 3.2 4.8 0.00 0.00 0.00 44 1013.5
20260901235929 24 242 4.8 4.8 0.00 0.00 0.00 43 1013.5
20260901235431 25 284 1.6 1.6 0.00 0.00 0.00 41 1013.5
20260901234928 25 231 0.0 0.0 0.00 0.00 0.00 42 1013.5
20260901234429 26 232 1.6 1.6 0.00 0.00 0.00 39 1013.5
20260901233928 26 43 1.6 3.2 0.00 0.00 0.00 37 1013.2
20260901233435 26 63 3.2 4.8 0.00 0.00 0.00 37 1013.2
20260901232930 26 29 3.2 3.2 0.00 0.00 0.00 37 1013.2
20260901232428 26 6 4.8 4.8 0.00 0.00 0.00 37 1013.5
20260901231928 26 48 3.2 3.2 0.00 0.00 0.00 38 1013.2
20260901231428 26 35 3.2 3.2 0.00 0.00 0.00 38 1013.5
20260901230929 26 350 3.2 4.8 0.00 0.00 0.00 38 1013.2
20260901230429 26 42 3.2 3.2 0.00 0.00 0.00 38 1013.2
20260901225929 26 18 4.8 4.8 0.00 0.00 0.00 39 1013.2
20260901225428 26 344 3.2 3.2 0.00 0.00 0.00 38 1013.2
20260901224929 26 8 3.2 4.8 0.00 0.00 0.00 38 1013.2
20260901224428 26 70 3.2 4.8 0.00 0.00 0.00 38 1013.2